Location: Zagreb
(45.8000°N, 16.0000°E)
Time: 14:14:35
(UTC+02:00)

Transit 2A Rocket - Pass Details

Date: 14 August 2022
Orbit: 593 x 907 km, 66.7° (Epoch: 25 September)

Event Time Altitude Azimuth Distance (km) Brightness Sun altitude
Rises 02:56:26 0° 331° (NNW) 2,853 8.4 -24.4°
Reaches altitude 10° 02:58:43 10° 337° (NNW) 1,963 7.5 -24.2°
Maximum altitude 03:02:58 47° 52° (NE) 834 5.5 -23.8°
Drops below altitude 10° 03:07:27 10° 127° (SE) 2,073 7.2 -23.3°
Sets 03:09:55 0° 133° (SE) 3,031 8.0 -23.1°
